TimeCEST,TemperatureF,Dew PointF,Humidity,Sea Level PressureIn,VisibilityMPH,Wind Direction,Wind SpeedMPH,Gust SpeedMPH,PrecipitationIn,Events,Conditions,WindDirDegrees,DateUTC
2:00 AM,68,67,94,30.12,12,Calm,Calm,,,,,,2012-10-06 00:00:00
4:55 AM,66.2,64.4,94,30.12,-9999.0,North,-9999.0,-,N/A,,Clear,0,2012-10-06 02:55:00
5:00 AM,66,65,94,30.12,12,Calm,Calm,,,,,,2012-10-06 03:00:00
5:55 AM,66.2,64.4,94,30.12,-9999.0,North,-9999.0,-,N/A,,Clear,0,2012-10-06 03:55:00
6:55 AM,66.2,64.4,94,30.12,-9999.0,North,-9999.0,-,N/A,,Clear,0,2012-10-06 04:55:00
7:55 AM,66.2,64.4,94,30.12,-9999.0,North,-9999.0,-,N/A,,Clear,0,2012-10-06 05:55:00
8:00 AM,66,64,90,30.12,12,Calm,Calm,,,,,,2012-10-06 06:00:00
8:55 AM,66.2,64.4,94,30.12,-9999.0,North,-9999.0,-,N/A,,Clear,0,2012-10-06 06:55:00
9:55 AM,71.6,69.8,94,30.12,-9999.0,North,-9999.0,-,N/A,,Clear,0,2012-10-06 07:55:00
10:55 AM,73.4,69.8,88,30.15,-9999.0,North,-9999.0,-,N/A,,Clear,0,2012-10-06 08:55:00
11:00 AM,73,69,84,30.14,12,,1.2,,,,,,2012-10-06 09:00:00
11:55 AM,73.4,68.0,83,30.15,-9999.0,North,-9999.0,-,N/A,,Clear,0,2012-10-06 09:55:00
12:55 PM,75.2,69.8,83,30.15,-9999.0,North,-9999.0,-,N/A,,Clear,0,2012-10-06 10:55:00
1:55 PM,77.0,71.6,83,30.15,-9999.0,North,-9999.0,-,N/A,,Clear,0,2012-10-06 11:55:00
2:00 PM,77,71,76,30.14,12,SSW,3.5,,,,,210,2012-10-06 12:00:00
2:55 PM,82.4,69.8,66,30.12,-9999.0,North,-9999.0,-,N/A,,Clear,0,2012-10-06 12:55:00
3:55 PM,84.2,71.6,66,30.12,-9999.0,North,-9999.0,-,N/A,,Clear,0,2012-10-06 13:55:00
4:55 PM,84.2,71.6,66,30.12,-9999.0,North,-9999.0,-,N/A,,Clear,0,2012-10-06 14:55:00
5:00 PM,85,72,57,30.10,12,SSW,3.5,,,,,210,2012-10-06 15:00:00
5:55 PM,84.2,71.6,66,30.12,-9999.0,North,-9999.0,-,N/A,,Clear,0,2012-10-06 15:55:00
6:55 PM,75.2,71.6,89,30.12,-9999.0,North,-9999.0,-,N/A,,Clear,0,2012-10-06 16:55:00
7:55 PM,71.6,69.8,94,30.12,-9999.0,North,-9999.0,-,N/A,,Clear,0,2012-10-06 17:55:00
8:55 PM,71.6,69.8,94,30.09,-9999.0,North,-9999.0,-,N/A,,Clear,0,2012-10-06 18:55:00
9:55 PM,69.8,69.8,100,30.09,-9999.0,North,-9999.0,-,N/A,,Clear,0,2012-10-06 19:55:00
10:55 PM,69.8,68.0,94,30.12,-9999.0,North,-9999.0,-,N/A,,Clear,0,2012-10-06 20:55:00
11:00 PM,69,68,94,30.11,12,Calm,Calm,,,,,,2012-10-06 21:00:00
11:55 PM,69.8,66.2,88,30.09,-9999.0,North,-9999.0,-,N/A,,Clear,0,2012-10-06 21:55:00